Weather Roundup
Issued by NWS

Home | Current Version | Previous Version | Graphics & Text | Print | Product List | Glossary Off
Versions: 1 2 3 4 5 6 7 8 9 10 11 12 13 14 15 16 17 18 19 20 21 22 23 24 25 26 27 28 29 30 31 32 33 34 35 36 37 38 39 40 41 42 43 44 45 46 47 48 49 50

000
NZUS93 KARX 232310
HRRWXR

CURRENT HOURLY OBSERVATIONS ACROSS
MUCH OF THE UPPER MISSISSIPPI VALLEY
NATIONAL WEATHER SERVICE LA CROSSE WI
600 PM CDT FRI JUN 23 2017


...SOUTHEAST MINNESOTA...


CITY           SKY/WX    TMP DP  RH WIND       PRES   REMARKS
ROCHESTER      PTSUNNY   67  55  65 NW20G26   29.85R
ROCHESTER/MAYO CLOUDY    66  54  64 W18G28    29.84R
WINONA         PTSUNNY   72  52  49 W8        29.80S
AUSTIN         PTSUNNY   68  52  56 NW15G25   29.87S
ALBERT LEA     MOSUNNY   68  52  56 NW13G21   29.89S
DODGE CENTER   MOSUNNY   64  54  68 W14G24    29.86S
PRESTON        CLOUDY    65  53  65 NW21      29.86R
OWATONNA       PTSUNNY   68  55  64 NW13G24   29.87S
FARIBAULT      CLOUDY    64  57  77 W9        29.86S
$$

...ELSEWHERE IN MINNESOTA...


CITY           SKY/WX    TMP DP  RH WIND       PRES   REMARKS
MINNEAPOLIS    PTSUNNY   70  52  52 NW16G24   29.82R
INTNL FALLS    MOSUNNY   62  54  74 W13G29    29.77R
DULUTH         CLOUDY    63  53  70 NW15G23   29.75R
RED WING       CLOUDY    72  48  43 NW12G17   29.80R
REDWOOD FALLS  CLOUDY    66  49  54 NW20G25   29.92R
MANKATO        PTSUNNY   69  51  52 NW17G26   29.89R
WORTHINGTON    CLOUDY    64  50  60 NW20G30   29.98R
FAIRMONT       PTSUNNY   69  52  54 NW18G29   29.92R
$$

...SOUTHWEST WISCONSIN...


CITY           SKY/WX    TMP DP  RH WIND       PRES   REMARKS
LA CROSSE      MOSUNNY   77  54  44 W12       29.78F
PRAIRIE DU CHI CLOUDY    71  53  52 W9        29.81S
BOSCOBEL       MOSUNNY   72  53  51 W9        29.80S
LONE ROCK      CLOUDY    71  54  54 NW13      29.78R
PLATTEVILLE    CLOUDY    71  54  55 W12G17    29.81F
FORT MC COY    MOSUNNY   71  54  56 W13G20    29.79S
CAMP DOUGLAS   PTSUNNY   68  55  62 W13       29.77R
MAUSTON-NEW LI MOCLDY    70  56  60 W12       29.77R
VIROQUA        FAIR      69  56  63 NW5       29.81S
WIS DELLS      CLOUDY    69  53  56 W8        29.77S
$$

...ELSEWHERE IN WISCONSIN...


CITY           SKY/WX    TMP DP  RH WIND       PRES   REMARKS
MILWAUKEE      PTSUNNY   80  50  34 W16       29.68S
MADISON        CLOUDY    71  54  54 NW13G25   29.75R
GREEN BAY      CLOUDY    73  56  54 W15       29.68R
EAU CLAIRE     PTSUNNY   70  49  47 NW15      29.77R
BLACK RVR FLS  MOCLDY    71  48  44 NW8G17    29.78R
MEDFORD        CLOUDY    66  50  55 W12G18    29.75R
WAUSAU         CLOUDY    68  49  50 NW15      29.72R
WIS RAPIDS     CLOUDY    69  53  56 NW10      29.77R
MARSHFIELD     PTSUNNY   69  52  54 W12G22    29.75R
RICE LAKE      PTSUNNY   68  50  53 W8        29.79R
$$

...NORTHEAST IOWA...


CITY           SKY/WX    TMP DP  RH WIND       PRES   REMARKS
WATERLOO       PTSUNNY   72  54  53 NW20      29.86R
DUBUQUE        CLOUDY    71  55  56 NW13      29.82F
DECORAH        CLOUDY    68  55  64 NW12G23   29.83R
MASON CITY     PTSUNNY   68  53  58 NW17G23   29.91R
CHARLES CITY   MOSUNNY   68  52  56 NW21G28   29.88R
OELWEIN        MOSUNNY   70  57  64 NW18G26   29.87R
$$

...ELSEWHERE IN IOWA...


CITY           SKY/WX    TMP DP  RH WIND       PRES   REMARKS
DES MOINES     PTSUNNY   74  50  42 NW21G28   29.91R
IOWA CITY      SUNNY     76  54  46 NW15G22   29.86S
FORT DODGE     MOSUNNY   70  52  52 NW14G21   29.95S
MARSHALLTOWN   PTSUNNY   70  53  54 NW20      29.89R
CEDAR RAPIDS   MOSUNNY   70  56  61 NW17      29.85S
$$

...NORTHERN ILLINOIS...


CITY           SKY/WX    TMP DP  RH WIND       PRES   REMARKS
CHICAGO-OHARE  PTSUNNY   80  51  36 W14G20    29.70S
CHICAGO-MIDWAY PTSUNNY   81  51  35 W16       29.71S
MOLINE         SUNNY     76  52  43 NW21G30   29.81R
ROCKFORD       MOSUNNY   78  52  40 NW24G31   29.76R
PEORIA         MOSUNNY   80  56  43 W10       29.78S
$$

NOTE: "FAIR" INDICATES FEW OR NO CLOUDS BELOW 12,000 FEET WITH NO
SIGNIFICANT WEATHER AND/OR OBSTRUCTIONS TO VISIBILITY. WIND
SPEEDS ARE IN MILES-PER-HOUR.




USA.gov is the U.S. government's official web portal to all federal, state and local government web resources and services.